Regional Weather Roundup
Issued by NWS Cleveland, OH

Current Version | Previous Version | Text Only | Print | Product List | Glossary On
Versions: 1 2 3 4 5 6 7 8 9 10 11 12 13 14 15 16 17 18 19 20 21 22 23 24 25 26 27 28 29 30 31 32 33 34 35 36 37 38 39 40 41 42 43 44 45 46 47 48 49 50
000 ASUS41 KCLE 170612 RWRCLE OHIO REGIONAL WEATHER ROUNDUP NATIONAL WEATHER SERVICE WILMINGTON, OH 100 AM EST TUE JAN 17 2017 NOTE: "FAIR" INDICATES FEW OR NO CLOUDS BELOW 12,000 FEET WITH NO SIGNIFICANT WEATHER AND/OR OBSTRUCTIONS TO VISIBILITY. OHZ001>008-015>018-024>027-034-035-043-044-170700- NORTHWEST OHIO CITY SKY/WX TMP DP RH WIND PRES REMARKS DEFIANCE RAIN 38 35 89 E9 29.99F FOG FINDLAY LGT RAIN 44 41 89 SE9 29.99F FOG TOLEDO EXPRESS LGT RAIN 34 34 100 E8 30.01F FOG WCI 27 TOLEDO EXEC LGT RAIN 35 35 100 E7 30.03F FOG WCI 29 LIMA RAIN 48 48 100 SE10 29.99F FOG $$ OHZ009>014-019>023-028>033-038-089-170700- NORTHEAST OHIO CITY SKY/WX TMP DP RH WIND PRES REMARKS CLE-HOPKINS CLOUDY 41 36 82 SE6 30.09F CLE-LAKEFRONT CLOUDY 38 36 92 CALM 30.07F CUY CO. ARPT NOT AVBL LORAIN-ELYRIA CLOUDY 39 35 86 S7 30.07F ASHTABULA LGT RAIN 37 32 82 SE6 30.12F AKRON-CANTON LGT RAIN 40 36 86 SE9 30.08F FOG WOOSTER LGT RAIN 37 36 96 E5 30.07F FOG MANSFIELD CLOUDY 44 44 100 S13 30.04F FOG YOUNGSTOWN CLOUDY 39 35 86 SE9 30.10F $$ OHZ042-051>053-060>062-070>072-077>081-170700- SOUTHWEST OHIO CITY SKY/WX TMP DP RH WIND PRES REMARKS CINC-COVINGTON LGT RAIN 54 53 97 S12 30.00F CINC-LUNKEN LGT RAIN 48 48 100 CALM 30.02F FOG HAMILTON LGT RAIN 52 52 100 CALM 30.01F FOG DAYTON LGT RAIN 49 49 100 SE10 30.01F VSB 1 WRIGHT-PAT AFB LGT RAIN 50 50 100 CALM 30.02F DAYTON GENERAL LGT RAIN 53 51 93 SE9 30.00F WILMINGTON LGT RAIN 51 50 96 S8 30.03F $$ OHZ036-037-039>041-045>050-054>059-063>069-073>076-082>088-170700- CENTRAL AND SOUTHEAST OHIO CITY SKY/WX TMP DP RH WIND PRES REMARKS COLUMBUS LGT RAIN 48 48 100 SE6 30.04F OSU AIRPORT CLOUDY 47 47 100 SE7 30.04F FOG BOLTON FIELD CLOUDY 45 45 100 SE5 30.04F RICKENBACK AFB LGT RAIN 44 44 100 E5 30.04F NEWARK CLOUDY 41 40 96 CALM 30.06F FOG MARION LGT RAIN 44 43 96 SE9 30.03F FOG LANCASTER CLOUDY 48 46 93 SE9 30.05F FOG ZANESVILLE CLOUDY 43 42 97 CALM 30.07F FOG NEW PHILLY CLOUDY 41 38 89 SE5 30.10F $$

USA.gov is the U.S. government's official web portal to all federal, state and local government web resources and services.